Flag for U.S.A. Weather past 2 weeks in Barnstable, Massachusetts, U.S.A.

Now
23 °F

Sunny.


Feels Like: 14 °F
Forecast: 13 / 26 °F
Wind: 8 mph from Northwest

Location: Barnstable Municipal-Boardman Airport

Current Time: Feb 28, 2015 at 11:50:17 AM

Latest Report: Feb 28, 2015 at 10:56 AM


Visibility: 10 mi

Pressure: 30.73 "Hg

Humidity: 57%

Dew point: 10 °F

Location of BarnstableLocation

Historic Weather in Barnstable — Graph

°F

Barnstable temperature yesterday

Maximum temperature yesterday: 25 °F (at 2:56 PM)
Minimum temperature yesterday: 3 °F (at 11:56 PM)
Average temperature yesterday: 18 °F

Past Weeks' High & Low Weather Summary

 TemperatureHumidityPressure
High40 °F (Feb 22, 1:56 AM)100% (Feb 14, 8:56 PM)30.73 "Hg (Feb 14, 8:56 PM)
Low-6 °F (Feb 21, 4:56 AM)26% (Feb 16, 12:56 PM)29.15 "Hg (Feb 15, 6:56 AM)
Average21 °F66%29.98 "Hg
* Reported Feb 13 10:56 AM — Feb 28 10:56 AM, Barnstable, Weather by CustomWeather, © 2015

Note: Actual official high and low records may vary slightly from our data, if they occured in-between our weather recording intervals... More about our weather records

Advertising

Barnstable weather history for previous 24 hours

 ConditionsComfort  
Time TempWeatherWind HumidityBarometerVisibility
10:56 AM
Sat, Feb 28
23 °FSunny.8 mph57%30.73 "Hg10 mi
9:56 AM21 °FSunny.10 mph60%30.72 "Hg10 mi
8:56 AM21 °FSunny.12 mph60%30.72 "Hg10 mi
7:56 AM17 °FSunny.6 mph62%30.69 "Hg10 mi
6:56 AM13 °FSunny.6 mph64%30.66 "Hg10 mi
5:56 AM12 °FClear.6 mph67%30.64 "Hg10 mi
4:56 AM14 °FClear.7 mph64%30.62 "Hg10 mi
3:56 AM14 °FClear.6 mph64%30.58 "Hg10 mi
2:56 AM15 °FClear.8 mph58%30.56 "Hg10 mi
1:56 AM17 °FClear.9 mph54%30.55 "Hg10 mi
12:56 AM18 °FClear.7 mph57%30.53 "Hg10 mi
11:56 PM
Fri, Feb 27
3 °FClear.5 mph79%30.51 "Hg10 mi
10:56 PM4 °FClear.No wind80%30.49 "Hg10 mi
9:56 PM6 °FClear.No wind79%30.48 "Hg10 mi
8:56 PM9 °FClear.No wind73%30.45 "Hg10 mi
7:56 PM11 °FClear.No wind70%30.43 "Hg10 mi
6:56 PM15 °FClear.No wind64%30.42 "Hg10 mi
5:56 PM18 °FClear.No wind62%30.40 "Hg10 mi
4:56 PM23 °FSunny.5 mph53%30.37 "Hg10 mi
3:56 PM24 °FSunny.7 mph48%30.35 "Hg10 mi
2:56 PM25 °FSunny.N/A48%30.33 "Hg10 mi
1:56 PM24 °FSunny.10 mph50%30.31 "Hg10 mi
12:56 PM24 °FScattered clouds.13 mph52%30.30 "Hg10 mi
11:56 AM23 °FPartly sunny.10 mph50%30.32 "Hg10 mi
Weather by CustomWeather, © 2015

See weather overviewHow to use our weather pages